Other Public Products
Issued by NWS Grand Forks, ND

Home | Current Version | Previous Version | Graphics & Text | Print | Product List | Glossary On
Versions: 1 2 3 4 5 6 7 8 9 10 11 12 13 14 15 16 17 18 19 20 21 22 23 24 25 26 27 28 29 30 31 32 33 34 35 36 37 38 39 40 41 42 43 44 45 46 47 48 49 50
000
FPUS83 KFGF 060910
OPUFGF
PRAIRIE TO PINES WEATHER ROUNDUP
NATIONAL WEATHER SERVICE EASTERN NORTH DAKOTA/GRAND FORKS ND
400 AM CDT WED MAY 06 2015

 **SATELLITE DATA USED TO AUGMENT SKY COVER AT AUTOMATED STATIONS**
 *****  WEATHER ACROSS EASTERN NORTH DAKOTA  *****

CITY           SKY/WX    TMP DP  RH WIND       PRES   REMARKS
GRAND FORKS    MOCLDY    57  51  80 SE8       29.94F
GRAND FORKS AF MOCLDY    57  53  84 SE9       29.93F
GRAND CITY NWS   N/A     57 N/A N/A SE13        N/A
BUXTON         NOT AVBL
DEVILS LAKE    CLOUDY    57  52  82 SE10      29.88F
FARGO          CLOUDY    61  55  81 SE17      29.94F
WAHPETON ARPT  CLOUDY    55  52  88 S17       29.97F
$$

 *****  WEATHER ACROSS CENTRAL AND WESTERN NORTH DAKOTA  *****

CITY           SKY/WX    TMP DP  RH WIND       PRES   REMARKS
JAMESTOWN      LGT RAIN  58  54  86 SE15      29.89F
BISMARCK       CLOUDY    58  31  35 SE12      29.83F
MINOT          CLEAR     52  45  77 SE7       29.80F
MINOT AFB      CLEAR     49  47  91 SE9       29.78F
GARRISON         N/A     56  52  86 SE10      29.80F
WILLISTON      CLEAR     59  51  75 SE12      29.70F
DICKINSON      CLOUDY    55  53  93 SE10      29.74F
HETTINGER      CLOUDY    57  52  83 SE12      29.77F
$$

 *****  OTHER OBSERVATIONS NORTHEAST NORTH DAKOTA  *****

CITY           SKY/WX    TMP DP  RH WIND       PRES   REMARKS
WALHALLA       FAIR      57  57 100 SE9       29.92S
LANGDON        FAIR      57  52  82 SE14      29.92S
CAVALIER       FAIR      59  52  77 SE7       29.93S
GRAFTON        FAIR      55  54  94 SE9       29.95S
CANDO          PTSUNNY   55  54  94 SE9       29.88F
FORT TOTTEN      N/A     59  54  83 S10       29.95S
ROLLA          NOT AVBL
RUGBY          NOT AVBL
 ***** THE ABOVE OBSERVATIONS ARE NON NWS ARE NOT QUALITY
        CONTROLLED AND MAY MIS-REPORT RAIN FOR SNOW...
$$

 *****  OTHER OBSERVATIONS SOUTHEAST NORTH DAKOTA *****

CITY           SKY/WX    TMP DP  RH WIND       PRES   REMARKS
COOPERSTOWN    NOT AVBL
VALLEY CITY    CLOUDY    57  57 100 SE13G18   29.92F
OAKES            N/A     57  57 100 E15       29.91S FOG
GWINNER        CLOUDY    57  57 100 SE18      29.94F
SHEYENNE NWR     N/A     58  56  92 S8        29.95S
BUFFALO        NOT AVBL
WYNDMERE         N/A     57  55  94 SE12        N/A
 ***** THE ABOVE OBSERVATIONS ARE NON NWS ARE NOT QUALITY
       CONTROLLED AND MAY MIS-REPORT RAIN FOR SNOW...
$$

  *****  WEATHER ACROSS NORTHERN MINNESOTA  *****

CITY           SKY/WX    TMP DP  RH WIND       PRES   REMARKS
FLAG ISLAND    CLEAR     55  39  54 SE10      30.02R
WARROAD        CLEAR     54  43  66 S8        30.02S
ROSEAU         CLEAR     55  41  58 SE6       30.00S
HALLOCK        CLEAR     55  45  67 SE10      29.95F
THF RVR FALLS  PTCLDY    55  43  62 SE8       29.99S
HALSTAD        NOT AVBL
FOSSTON        MOCLDY    59  46  63 SE7       29.99F
BAUDETTE       CLEAR     51  32  48 SE8       30.04S
WASKISH        CLEAR     50  37  62 CALM      30.05S
CROOKSTON      PTCLDY    57  50  77 S8        29.97F
$$
  *****  WEATHER ACROSS CENTRAL AND WEST MINNESOTA  *****

CITY           SKY/WX    TMP DP  RH WIND       PRES   REMARKS
BEMIDJI        MOCLDY    56  41  57 SE7       30.03S
PARK RAPIDS    CLOUDY    60  48  64 SE12      30.02F
WADENA         CLOUDY    55  52  88 SE12      30.03S
DETROIT LAKES  CLOUDY    59  54  82 SE15      30.00S
MOORHEAD       CLOUDY    61  54  77 SE15      29.97S
FERGUS FALLS   CLOUDY    57  54  88 SE16      29.99F
ELBOW LAKE     CLOUDY    56  54  91 SE14      29.99F
MORRIS MN      CLOUDY    55  54  94 SE15      29.99F FOG
STAPLES        CLOUDY    55  52  88 SE9       30.04F
WHEATON        CLOUDY    54  52  94 SE17      29.98F
$$
  *****  WEATHER ELSEWHERE ACROSS MINNESOTA  *****

CITY           SKY/WX    TMP DP  RH WIND       PRES   REMARKS
DULUTH         CLOUDY    50  30  46 E7        30.12F
INTRNTL FALLS  CLEAR     44  28  53 SE6       30.08S
ELY            CLEAR     36  27  69 CALM      30.14S
CLOQUET        CLOUDY    46  30  53 E3        30.12S
BRAINERD       CLOUDY    57  51  80 S9        30.07S
HIBBING        PTCLDY    44  28  53 SE3       30.10F
ALEXANDRIA     CLOUDY    55  53  93 SE12      30.03F
SAINT CLOUD    CLOUDY    56  53  90 E7        30.06F
MINNEAPOLIS    CLOUDY    56  54  93 E9        30.08F FOG
$$

  *****  WEATHER ACROSS SOUTH DAKOTA  *****

CITY           SKY/WX    TMP DP  RH WIND       PRES   REMARKS
SIOUX FALLS    CLOUDY    63  59  87 SE15      29.92F
BROOKINGS      CLOUDY    59  57  94 SE13      29.94F
WATERTOWN      CLOUDY    59  56  89 E8        29.93F
HURON          CLOUDY    62  59  90 SE12      29.86F
SISSETON         N/A     56  56 100 S18       29.94F
ABERDEEN       CLOUDY    61  57  87 SE12      29.88F
MITCHELL       CLOUDY    63  60  90 SE13      29.86F FOG
PIERRE         CLOUDY    58  55  90 SE9       29.79F
MOBRIDGE       CLOUDY    60  57  89 SE8       29.80F FOG
RAPID CITY     LGT RAIN  53  52  96 SE5       29.75F FOG
$$

  *****  SOME WEATHER IN NEARBY STATES *****

CITY           SKY/WX    TMP DP  RH WIND       PRES   REMARKS
GLASGOW MT     PTCLDY    56  47  71 NW14      29.67R
GREAT FALLS MT MOCLDY    42  32  67 W9        29.84R
CHEYENNE WY    LGT RAIN  47  45  93 N9        29.73F FOG
SCOTTSBLUFF NE LGT RAIN  53  53 100 E7        29.71F FOG
OMAHA NE       CLOUDY    64  61  90 SE12      29.91F
DES MOINES IA  MOCLDY    65  61  87 SE6       30.00F FOG
DAVENPORT IA   CLOUDY    55  53  93 E12       30.12F FOG
CHICAGO IL     FOG       47  46  97 NE6       30.18S VSB 3/4
EAU CLAIRE WI  CLOUDY    53  50  89 E6        30.14S
LA CROSSE WI   CLOUDY    56  53  90 SE5       30.13F
$$

  *****  SOME NATIONAL WEATHER *****

CITY           SKY/WX    TMP DP  RH WIND       PRES   REMARKS
LA GUARDIA NY  CLOUDY    68  37  32 N9        30.19S
RALEIGH NC     PTCLDY    56  52  86 CALM      30.25F
ATLANTA GA     PTCLDY    63  51  65 E3        30.21S
NEW ORLEANS LA PTCLDY    69  64  84 E3        30.05F
OKLAHOMA CITY  CLOUDY    61  57  88 SE9       29.89R
ALBUQUERQUE NM MOCLDY    54  43  66 SW6       29.94F
SALT LAKE CITY CLOUDY    55  48  77 SE7       29.81F
LOS ANGELES CA MOCLDY    59  51  75 CALM      29.94F
BOISE ID       PTCLDY    47  24  40 W12       29.87S
SEATTLE WA     PTCLDY    46  43  89 CALM      30.11S
$$

*** WEATHER ACROSS MANITOBA...SASKATCHEWAN AND ONTARIO ***
                ***ONTARIO***

CITY           SKY/WX    TMP DP  RH WIND       PRES   REMARKS
GERALDTON      CLEAR     39  28  65 CALM      30.20S
THUNDER BAY    PTCLDY    32  30  93 NW3       30.20S
SIOUX LOOKOUT  PTCLDY    46  28  49 SE6       30.10S
TORONTO        MOCLDY    48  41  76 N3        30.28S
BIG TROUT LK   CLOUDY    36  25  64 E5        30.21R
PICKLE LAKE    NOT AVBL
DRYDEN         CLEAR     52  30  43 S9        30.08S
KENORA         PTCLDY    52  32  46 S8        30.05S
$$
                *** MANITOBA***

CITY           SKY/WX    TMP DP  RH WIND       PRES   REMARKS
BRANDON        PTCLDY    55  45  67 SE12      29.84F
DAUPHIN        CLEAR     50  39  66 N7        29.82S
ISLAND LAKE    NOT AVBL
PILOT MOUND      N/A     55  50  82 S15         N/A
THE PAS        MOCLDY    37  30  75 E7        29.91F
THOMPSON       MOCLDY    34  18  51 NE7       30.14S
WINNIPEG       CLEAR     59  45  58 S16G22    29.94F
LYNN LAKE      FLURRIES  32  21  64 NE13G20   30.17F WCI  22
GILLAM         PTCLDY    25  19  80 E6        30.26S WCI  18
$$
                ***SASKATCHEWAN***

CITY           SKY/WX    TMP DP  RH WIND       PRES   REMARKS
ESTEVAN        PTCLDY    48  43  81 E9        29.74F
KINDERSLEY     CLOUDY    46  39  76 W15       29.68R
LLOYDMINSTER   CLOUDY    43  37  81 NE15G21   29.68S
PRINCE ALBERT  CLOUDY    41  39  93 E15       29.76F
REGINA         CLOUDY    55  48  76 SE13G18   29.70S
YORKTON        CLEAR     55  36  47 SE12      29.75F



USA.gov is the U.S. government's official web portal to all federal, state and local government web resources and services.